RH
12 10 8 7 5 4 4 5 4 4 2 3 9 11 6 6 7 8 10 11 14 11 16 49 56 67 75 84 93 97 71 84 70 64 79 75 62 71 67 65 79 75 44 66 84
16 12 11 10 8 6 4 4 4 5 4 2 3 8 11 6 6 6 8 10 13 10 15 57 72 76 75 82 90 96 86 85 72 71 80 67 57 80 80 83 90 65 93 76 82
21 16 14 12 11 9 7 4 4 4 4 4 2 3 8 8 6 5 6 9 12 10 17 74 85 89 88 89 95 97 96 79 76 83 77 70 62 85 81 86 83 63 74 76 74
26 20 17 15 13 11 9 6 4 4 4 4 4 2 3 11 9 7 6 7 11 10 15 70 82 65 90 87 95 94 81 71 81 79 80 72 68 77 63 68 78 55 51 78 78
27 23 20 17 15 13 10 7 4 4 4 4 4 3 2 5 13 14 10 6 9 10 14 72 74 75 76 87 93 85 84 93 75 84 81 84 83 71 75 75 80 57 54 85 69
28 24 20 18 16 13 10 6 4 4 4 4 4 4 3 4 12 10 14 10 8 12 17 60 74 72 76 82 91 83 94 69 76 86 80 81 82 76 80 84 73 66 58 74 72
28 24 21 18 13 9 5 4 4 5 4 4 3 4 4 11 14 12 10 10 7 12 14 70 62 67 51 70 75 87 87 84 95 83 74 84 78 78 75 86 75 83 81 81 80
29 26 21 16 8 4 4 6 5 5 5 4 3 4 5 7 15 12 19 10 5 12 14 60 51 47 40 47 52 89 96 99 93 98 94 80 83 78 80 86 77 83 79 76 78
27 25 20 13 4 4 7 18 18 11 12 10 28 31 33 26 12 13 17 16 5 12 14 50 45 42 36 33 60 74 77 97 89 99 82 69 86 92 85 78 66 73 83 73 77
24 21 15 7 3 6 24 24 33 14 39 38 40 34 35 30 19 9 19 14 10 21 38 43 37 39 40 39 56 74 90 84 81 79 92 75 88 88 85 80 61 68 80 70 80
19 13 6 3 3 7 29 25 33 20 13 15 32 34 37 36 34 32 28 38 37 38 34 33 33 33 37 48 50 66 72 75 74 71 93 93 82 98 90 87 70 63 81 71 80
7 3 2 2 2 6 18 18 31 35 30 25 23 21 34 32 33 30 39 41 40 34 37 33 19 22 33 45 67 79 87 88 83 88 96 89 87 91 92 85 80 70 74 74 75
2 2 2 2 3 10 18 16 41 41 38 26 27 28 27 30 35 26 36 39 40 35 30 26 19 21 30 67 64 46 57 82 75 89 100 86 98 98 95 84 78 70 72 72 70
2 2 3 4 8 14 15 32 46 43 40 28 28 28 29 30 31 33 29 31 34 25 27 26 18 22 22 25 63 52 46 60 75 69 81 98 95 78 90 81 76 66 66 71 71
4 3 3 8 14 25 18 35 42 44 52 33 27 25 23 30 29 29 29 26 25 24 24 18 15 14 15 18 47 52 58 63 76 71 81 78 70 78 75 76 78 69 64 68 72
8 7 4 3 3 8 22 31 38 40 39 29 27 23 27 29 28 30 28 25 26 24 24 22 17 14 14 26 51 56 59 65 82 86 89 67 68 57 64 64 67 62 67 67 77
6 5 7 6 21 25 45 41 42 41 35 30 25 24 25 28 28 28 26 23 25 26 24 20 14 16 27 61 62 51 64 97 94 87 84 72 84 56 60 73 69 66 75 74 76
8 3 4 45 51 50 46 40 43 32 33 27 21 24 27 28 29 28 26 22 24 25 26 26 17 37 48 30 36 58 46 63 82 85 73 76 72 52 58 58 62 60 75 73 72
12 4 29 46 46 43 38 37 27 26 30 29 29 30 28 27 30 28 28 24 30 24 24 27 26 20 34 28 33 62 48 39 50 56 60 69 52 35 45 50 52 52 71 76 70
16 29 37 45 45 41 41 40 27 26 31 31 33 35 35 32 32 28 31 32 33 31 28 28 29 29 24 28 33 27 29 49 49 69 65 72 61 39 36 41 47 52 63 64 70
30 31 35 43 42 42 41 35 27 26 26 27 26 32 36 35 31 31 34 36 35 31 29 30 33 32 28 22 20 23 25 27 30 32 54 76 52 29 34 36 39 53 56 57 66
44 27 34 34 35 38 35 29 31 29 28 30 30 30 31 30 34 30 36 34 31 30 29 31 31 32 30 29 28 20 21 22 24 24 25 24 24 34 37 40 44 42 42 55 54
44 28 33 30 31 31 34 27 29 31 28 27 31 29 30 34 35 34 32 33 30 29 25 27 35 37 28 28 28 30 35 31 21 19 19 20 18 33 34 42 45 52 43 51 61
47 47 42 34 37 32 33 30 30 31 30 24 29 30 28 29 33 41 35 36 36 33 30 26 32 41 40 36 37 34 35 36 34 28 33 24 31 42 38 39 48 47 56 52 56
48 53 55 43 30 29 33 34 24 28 25 26 30 26 23 26 32 36 41 37 40 35 34 30 30 38 44 36 39 40 39 38 37 38 32 25 52 52 47 37 42 53 59 66 63
43 50 48 31 32 28 28 26 26 24 24 25 26 25 24 27 45 42 40 41 40 38 39 35 31 34 34 38 34 40 40 41 47 44 41 45 50 60 59 54 62 56 63 68 64
38 56 46 40 31 31 28 29 28 26 27 25 28 25 17 21 33 44 40 40 35 36 43 35 41 35 35 39 35 40 49 59 60 57 62 54 64 80 72 57 57 65 62 60 77
Wind_Speed
6 6 6 7 8 7 6 6 6 6 8 10 13 13 13 13 12 10 7 8 8 9 14 13 15 12 10 6 6 3 25 16 16 23 24 18 10 11 3 8 13 5 13 17 20
6 6 6 6 6 7 7 6 7 7 7 8 11 13 13 13 13 10 10 8 9 10 14 12 13 10 6 5 5 5 20 17 21 17 28 22 10 19 16 15 12 19 19 17 18
7 7 7 7 7 7 7 6 6 7 7 7 9 11 13 13 13 12 10 10 10 12 17 18 18 15 5 2 4 5 8 21 26 19 23 19 15 22 20 19 12 6 18 18 11
8 7 7 8 8 8 7 6 6 5 6 6 7 9 11 13 8 13 12 11 12 14 21 20 19 14 9 4 8 10 4 19 23 22 20 25 23 27 9 10 13 2 11 14 12
8 8 8 8 8 8 8 8 6 6 6 6 6 7 9 13 14 8 14 13 13 13 19 23 16 14 8 2 12 12 10 17 33 19 22 19 26 23 17 15 15 9 11 12 8
7 7 7 8 8 7 7 6 5 5 5 6 6 5 6 10 17 18 7 12 14 13 20 20 19 8 2 8 10 12 7 12 35 19 17 20 27 25 19 24 21 13 11 11 12
7 7 8 8 8 7 6 5 6 5 5 6 5 3 3 9 13 16 15 9 13 13 19 22 16 12 2 5 9 5 10 29 24 23 18 20 25 28 18 25 22 22 18 16 13
7 6 6 7 7 5 5 6 6 7 7 7 7 5 2 11 14 12 9 9 11 15 21 21 15 13 3 5 10 11 4 21 19 17 27 21 24 21 22 22 23 27 22 19 15
7 5 5 6 5 5 6 7 8 9 11 12 14 11 12 5 8 11 8 10 10 14 21 20 14 11 7 4 4 1 7 4 7 8 27 21 23 28 21 15 12 26 26 15 17
7 5 5 5 4 5 8 6 6 6 7 9 9 8 12 10 3 8 11 16 10 16 25 22 15 15 17 13 5 7 11 6 6 6 20 17 24 28 21 16 12 24 26 16 21
7 7 5 5 4 6 5 5 5 8 7 5 7 8 10 9 12 3 17 11 13 19 23 16 16 20 17 13 10 8 4 7 6 4 9 20 26 27 34 28 17 19 28 23 24
8 7 5 5 6 7 4 8 13 11 6 12 11 7 7 3 8 9 18 12 15 14 9 11 15 11 11 7 11 3 3 6 6 4 18 24 31 30 30 35 31 27 27 25 26
7 7 6 6 8 9 9 12 9 8 7 10 11 8 5 6 4 8 16 13 14 13 12 15 11 9 12 15 12 5 7 6 2 11 17 3 20 28 33 33 37 35 35 30 27
7 6 6 6 8 7 11 12 9 8 6 9 7 7 9 4 1 6 3 16 14 7 8 13 9 8 10 20 18 14 6 3 11 6 4 14 8 32 33 33 37 37 38 36 31
6 4 3 6 4 5 13 12 9 6 4 4 4 8 5 2 3 1 5 12 13 13 9 16 6 6 12 20 24 13 7 3 8 8 14 13 7 23 34 31 38 42 39 38 35
5 3 2 4 3 12 16 7 8 6 4 3 4 5 2 2 2 6 3 13 9 10 10 16 13 11 11 11 27 20 17 13 7 7 4 11 6 13 15 27 40 41 40 42 40
6 4 3 7 14 16 12 13 10 6 5 5 5 4 4 6 4 8 3 14 5 2 1 6 11 5 10 28 19 16 28 6 2 3 6 9 12 11 11 8 23 45 45 45 41
7 7 13 24 15 12 12 13 8 14 12 13 5 5 4 5 5 9 3 8 10 6 11 8 4 17 20 14 15 24 12 9 4 2 3 5 8 8 11 17 19 24 53 50 46
8 13 20 15 12 12 14 12 9 11 13 11 7 8 4 1 12 7 10 1 9 7 8 10 6 8 16 14 18 27 20 12 5 7 4 7 11 5 5 11 11 11 54 49 44
12 16 14 10 9 12 13 8 4 13 7 12 10 5 6 5 10 4 3 6 4 4 3 5 8 5 10 22 17 14 11 12 15 5 4 7 7 11 10 9 9 14 34 46 51
12 11 10 8 10 11 11 6 9 10 10 10 7 8 2 6 13 3 4 3 6 1 5 3 4 6 6 19 26 23 16 7 7 5 6 3 8 9 6 10 6 4 11 25 45
9 9 8 3 10 7 3 3 4 4 4 12 9 14 7 8 6 5 2 2 7 5 7 7 2 12 9 1 5 9 11 11 13 6 5 0 6 10 9 15 4 6 11 14 16
8 9 3 2 6 4 8 2 4 5 6 7 3 6 10 8 3 4 5 4 5 13 8 6 6 8 2 4 3 4 10 6 12 16 20 2 4 13 12 14 13 2 13 14 20
6 5 4 7 11 12 2 4 5 0 3 5 6 0 5 8 10 2 6 6 2 9 9 8 3 3 5 10 13 10 10 12 13 6 11 9 8 11 16 16 18 15 16 18 5
8 5 1 3 4 4 4 4 5 5 1 5 2 4 6 6 10 1 2 6 9 1 4 3 2 1 14 9 10 7 11 14 13 11 5 2 5 13 13 11 11 11 18 24 26
14 9 4 6 1 8 3 5 7 2 2 3 6 8 3 4 5 4 7 4 4 4 8 9 4 7 5 12 10 10 6 10 9 11 6 10 9 11 10 11 9 17 11 12 22
20 13 8 5 6 4 2 9 7 9 9 4 6 10 13 11 6 4 7 10 12 12 6 7 7 8 3 1 6 5 7 5 10 9 2 4 7 5 4 1 9 12 10 15 9
Wind_Direction
360 0 359 359 354 352 338 322 304 281 255 242 238 235 228 225 222 227 217 202 200 188 180 173 155 164 162 83 33 7 172 192 159 147 148 154 165 155 117 115 104 153 143 133 158
353 351 353 354 354 347 343 334 320 304 282 258 243 236 229 225 224 222 222 201 189 192 177 162 151 159 129 78 12 325 183 206 164 156 153 165 197 166 171 142 139 150 142 130 136
354 349 345 347 345 345 339 335 328 318 305 281 256 240 231 223 222 221 215 206 191 190 165 158 153 149 171 354 296 318 220 197 162 153 168 183 175 179 185 169 183 186 162 150 136
354 351 348 345 343 341 337 332 324 316 306 292 274 249 235 221 205 218 213 208 201 192 178 170 156 149 160 236 247 303 148 173 183 176 167 151 169 184 205 204 173 171 151 152 143
359 354 349 350 348 345 342 338 332 325 316 304 287 265 238 219 203 195 203 202 204 196 185 161 154 152 171 238 247 269 314 217 189 175 165 172 178 193 200 183 177 153 154 150 150
357 353 355 357 352 348 345 340 340 336 327 319 304 282 247 216 213 207 183 197 198 195 179 175 141 150 36 283 243 272 225 122 179 171 170 186 185 188 191 165 170 171 151 157 176
354 356 358 357 358 353 354 359 3 1 356 346 328 298 234 200 220 219 210 190 192 185 179 155 154 165 160 303 270 258 166 171 168 174 178 155 179 202 184 168 171 171 163 174 189
353 357 355 356 4 15 28 38 39 34 26 27 33 31 284 219 233 220 195 183 184 184 168 165 170 164 140 259 275 272 207 176 180 179 154 159 156 170 170 178 179 176 182 175 186
356 1 354 10 21 60 80 67 62 75 66 70 79 73 38 356 271 256 177 184 172 175 167 170 183 180 184 258 294 10 305 91 54 136 158 159 157 172 174 187 188 178 175 180 182
1 10 9 22 48 107 99 70 57 89 92 77 76 84 41 16 322 228 166 144 147 160 166 174 184 191 190 196 222 226 227 209 306 28 203 159 167 180 186 195 194 173 171 191 194
11 14 13 33 90 133 113 40 52 52 64 65 116 86 64 0 338 128 157 150 131 167 165 171 208 203 196 202 249 261 220 243 180 57 206 174 174 168 178 175 178 177 183 191 199
13 18 27 58 104 126 91 52 53 47 61 47 45 43 139 58 299 138 152 175 189 182 183 198 222 206 189 225 179 178 196 173 151 146 197 195 185 182 185 184 181 182 190 199 202
30 41 59 87 110 110 88 100 73 40 36 54 57 30 18 341 97 154 168 153 192 192 184 201 117 135 187 200 217 326 343 264 160 144 189 221 219 205 180 181 184 190 195 207 207
41 54 76 101 120 115 106 103 79 46 26 43 38 35 19 101 223 174 101 164 184 185 198 246 180 221 220 229 232 186 209 40 174 143 114 179 222 227 198 189 190 194 202 202 210
35 47 94 127 131 173 109 98 79 53 22 19 339 333 300 286 69 136 91 205 195 207 259 243 242 208 230 240 213 201 165 106 161 142 141 153 119 203 239 231 198 200 205 204 209
30 41 115 145 104 103 115 109 88 69 31 54 337 107 34 95 246 242 178 206 227 279 258 256 244 263 266 244 189 177 146 145 154 163 267 198 139 239 211 208 199 206 209 206 203
47 61 100 107 100 115 83 76 66 47 344 352 340 278 10 10 118 178 117 208 214 306 284 273 236 263 172 144 165 169 147 101 221 238 238 226 213 238 258 246 231 209 198 202 205
66 78 96 107 106 98 87 70 46 10 3 1 7 44 34 79 323 235 240 203 192 276 312 313 296 156 166 177 177 174 158 126 196 183 248 171 216 256 255 277 266 231 202 206 210
93 100 114 101 99 82 70 62 27 352 27 15 46 68 19 299 346 314 234 223 326 267 247 313 266 233 198 188 187 182 204 209 158 177 187 205 221 332 276 303 225 206 200 202 214
122 115 105 96 75 62 46 22 70 356 49 63 59 41 338 9 25 102 31 213 352 103 195 273 269 254 233 201 203 225 250 200 226 159 225 221 263 246 217 246 228 198 200 214 221
129 125 98 73 56 32 14 47 40 58 53 44 37 30 133 19 4 72 62 267 342 39 32 157 274 239 243 216 213 217 229 228 217 234 170 167 252 280 197 216 223 225 226 223 223
137 138 70 41 349 353 65 4 38 23 50 77 84 56 34 353 7 53 72 299 344 327 347 16 343 322 291 86 222 213 227 248 254 253 288 111 302 179 185 206 259 261 235 262 244
158 144 195 231 283 343 299 213 308 304 339 300 5 83 7 21 20 29 6 335 355 7 333 333 13 349 275 143 145 123 53 25 279 288 272 248 282 206 208 201 195 352 203 256 254
176 139 171 252 315 319 309 197 269 311 61 7 60 221 329 17 30 34 64 32 319 342 354 342 18 208 335 327 323 288 360 1 11 9 332 314 300 195 194 207 211 221 178 202 203
196 170 21 348 18 299 232 203 76 155 118 144 200 24 23 16 8 341 291 37 56 299 317 5 90 268 235 319 330 250 325 359 356 345 315 292 187 173 191 219 211 226 223 217 210
216 221 177 144 287 196 236 219 261 203 287 243 271 295 337 33 43 358 7 13 23 357 315 327 273 309 211 239 287 246 323 350 37 52 115 164 158 172 201 225 256 237 218 241 223
214 220 212 187 235 318 287 195 232 261 290 265 341 310 273 234 272 272 278 292 292 319 283 304 271 298 262 19 183 93 44 73 78 86 110 122 102 104 71 145 272 227 310 302 253